Regional Weather Roundup
Issued by NWS

Home | Current Version | Previous Version | Graphics & Text | Print | Product List | Glossary On
Versions: 1 2 3 4 5 6 7 8 9 10 11 12 13 14 15 16 17 18 19 20 21 22 23 24 25 26 27 28 29 30 31 32 33 34 35 36 37 38 39 40 41 42 43 44 45 46 47 48 49 50
000
ASUS44 KMEG 281210
RWRTN
TENNESSEE HOURLY STATE WEATHER ROUNDUP
NATIONAL WEATHER SERVICE MEMPHIS TN
700 AM CDT SAT MAR 28 2015

TNZ002-004-019-021-049-052-054-088>092-281300-
WEST TENNESSEE

CITY           SKY/WX    TMP DP  RH WIND       PRES   REMARKS
MEMPHIS INTL   CLOUDY    37  21  52 SE5       30.23R WCI  33
NWS MEMPHIS      N/A     35 N/A N/A MISG        N/A
JACKSON        CLEAR     25  22  88 CALM      30.23R
DYERSBURG      PTCLDY    30  14  51 CALM      30.25R
UNION CITY     CLEAR     27  25  93 CALM      30.23R
PARIS          CLEAR     21  18  86 NE3       30.22R
LEXINGTON      CLEAR     23  19  86 CALM      30.21R
SAVANNAH       PTCLDY    27  25  93 CALM      30.22R
$$

TNZ008-025-027-028-033-062-065-066-281300-
NORTH MIDDLE TENNESSEE

CITY           SKY/WX    TMP DP  RH WIND       PRES   REMARKS
NASHVILLE      PTCLDY    27  18  69 N9        30.21R WCI  18
CLARKSVILLE    CLEAR     26  18  71 CALM      30.22R
SMYRNA         CLEAR     28  20  72 N9        30.23R WCI  19
COOKEVILLE     CLEAR     25  21  86 CALM      30.15R
CROSSVILLE     CLOUDY    28  20  71 NW5       30.10R WCI  23
$$

TNZ061-075-076-078-094-096-097-281300-
SOUTH MIDDLE TENNESSEE

CITY           SKY/WX    TMP DP  RH WIND       PRES   REMARKS
FAYETTEVILLE   CLEAR     27  19  74 CALM      30.16S
TULLAHOMA      CLEAR     25  16  68 CALM      30.17R
WINCHESTER     CLEAR     27  18  69 CALM      30.17R
MCMINNVILLE    CLEAR     27  18  69 N7        30.16R WCI  19
COLUMBIA       CLEAR     27  27 100 CALM      30.18R
SHELBYVILLE    CLEAR     27  21  80 N3        30.20R
$$

TNZ017-018-042-046-047-281300-
NORTHEAST TENNESSEE

CITY           SKY/WX    TMP DP  RH WIND       PRES   REMARKS
TRI CITIES     MOCLDY    28  13  53 NW10      30.07R WCI  19
ELIZABETHTON   CLOUDY    27  10  50 N8        30.05R WCI  18
$$

TNZ012-013-036-069-073-074-281300-
CENTRAL EAST TENNESSEE

CITY           SKY/WX    TMP DP  RH WIND       PRES   REMARKS
KNOXVILLE      MOCLDY    31  19  61 N9        30.13R WCI  23
OAK RIDGE      PTCLDY    32  17  54 N6        30.15R WCI  26
GATLINBURG     CLOUDY    28  16  59 NW3       30.12R
MORRISTOWN     PTSUNNY   28  16  59 NW9       30.11R WCI  20
$$

TNZ083-085-099-281300-
SOUTHEAST TENNESSEE

CITY           SKY/WX    TMP DP  RH WIND       PRES   REMARKS
CHATTANOOGA    PTCLDY    32  18  56 N9        30.17R WCI  24
$$

SKY/WX REPORTED AS FAIR MEANS FEW OR NO CLOUDS BELOW
12 THOUSAND FEET.




USA.gov is the U.S. government's official web portal to all federal, state and local government web resources and services.